[[{"header":{"parameterUnit":"m.s-1","parameterCategory":1,"la1":30.2991,"la2":30.254,"lo1":-89.0895,"lo2":-89.0444,"dy":0.0017,"dx":0.0017,"nx":28,"ny":28,"refTime":"2025-06-20T21:00:00:Z","depth":0,"parameterNumber":2,"parameterNumberName":"U-component_of_WINDS"},"data":[0,0,0,0,0,0,0,0,0,0,0,0,0,0,0,0,0,0,0,0,0,0,0,0,0,0,0,0,0,0,0,0,0,0,0,0,0,0,0,0,0,0,0,0,0,0,0,0,0,0,0,0,0,0,0,0,0,0,-0.3957,-0.3957,0,-0.3976,-0.3977,-0.3977,-0.3995,-0.3995,-0.3995,-0.3995,-0.4015,-0.4016,-0.4016,0,0,0,0,0,0,0,0,0,0,0,0,0,-0.3936,-0.3936,-0.3957,-0.3957,-0.3957,-0.3976,-0.3977,-0.3977,-0.3995,-0.3995,-0.3995,-0.3995,-0.4015,-0.4016,-0.4016,0,0,0,0,0,0,0,0,0,0,0,0,0,-0.3949,-0.3936,-0.3957,-0.3968,-0.397,-0.3976,-0.3977,-0.3977,-0.3995,-0.3995,-0.3995,-0.3996,-0.4015,-0.4016,-0.4016,-0.4013,0,0,-0.4018,-0.4018,0,0,0,0,0,0,0,0,-0.3948,-0.395,-0.3966,-0.3968,-0.3969,-0.3983,-0.3977,-0.3989,-0.3995,-0.3985,-0.3995,-0.3996,-0.4005,-0.4006,-0.4009,-0.4014,-0.4015,-0.4018,-0.4018,-0.4018,-0.4018,0,0,0,0,0,0,0,-0.3947,-0.3949,-0.3965,-0.3967,-0.3968,-0.3973,-0.3975,-0.3979,-0.3993,-0.3986,-0.3987,-0.3989,-0.4005,-0.4008,-0.401,-0.4015,-0.4018,-0.4018,-0.4019,-0.4019,-0.402,-0.4019,0,0,0,0,0,0,-0.3944,-0.3948,-0.3964,-0.3965,-0.3959,-0.3973,-0.3976,-0.3978,-0.3993,-0.3995,-0.3989,-0.399,-0.4007,-0.4009,-0.401,-0.4008,-0.4018,-0.4019,-0.4019,-0.402,-0.4019,-0.4019,0,0,0,0,0,0,-0.3944,-0.3946,-0.3963,-0.3957,-0.396,-0.3973,-0.3976,-0.3979,-0.3982,-0.3995,-0.3998,-0.399,-0.4008,-0.401,-0.4012,-0.4009,-0.4019,-0.4019,-0.402,-0.402,-0.4019,-0.4003,0,0,0,0,0,0,-0.3943,-0.3945,-0.3944,-0.3957,-0.396,-0.3964,-0.3976,-0.3979,-0.3983,-0.3984,-0.3996,-0.3999,-0.4008,-0.4012,-0.4013,-0.401,-0.402,-0.402,-0.402,-0.4019,-0.4004,-0.4002,-0.4001,0,0,0,0,0,-0.3942,-0.3938,-0.3944,-0.3945,-0.3958,-0.3964,-0.3966,-0.3977,-0.3982,-0.3981,-0.399,-0.3998,-0.4009,-0.4012,-0.4013,-0.4011,-0.4021,-0.402,-0.4019,-0.4005,-0.4003,-0.4001,0,0,0,0,0,0,-0.3924,-0.394,-0.3946,-0.3946,-0.3954,-0.3967,-0.3966,-0.3974,-0.398,-0.3981,-0.3995,-0.3997,-0.3999,-0.4005,-0.4007,-0.4009,-0.4016,-0.4016,-0.4005,-0.4003,-0.4001,-0.4,-0.402,0,0,0,0,0,-0.392,-0.3924,-0.3937,-0.3936,-0.394,-0.3952,-0.3955,-0.3963,-0.3971,-0.3975,-0.3984,-0.3992,-0.3997,-0.4,-0.4006,-0.4005,-0.4009,-0.4004,-0.4003,-0.4001,-0.4001,-0.4002,-0.4001,-0.4017,-0.4017,-0.4017,0,0,-0.3912,-0.3921,-0.3922,-0.3933,-0.394,-0.3943,-0.3955,-0.3958,-0.3961,-0.3975,-0.3979,-0.3986,-0.3995,-0.3997,-0.3998,-0.4002,-0.3997,-0.4,-0.3999,-0.4,-0.4001,-0.4,-0.3998,-0.4017,-0.4017,-0.4017,0,0,-0.3899,-0.3906,-0.3906,-0.3913,-0.3923,-0.3932,-0.3932,-0.3945,-0.395,-0.3954,-0.3965,-0.3969,-0.3977,-0.3984,-0.3989,-0.398,-0.3988,-0.3981,-0.3973,-0.3974,-0.3973,-0.3971,-0.3969,-0.3968,-0.3981,-0.3981,-0.3981,0,-0.3888,-0.3893,-0.3905,-0.3908,-0.3913,-0.3926,-0.3927,-0.3933,-0.3944,-0.3948,-0.3952,-0.3964,-0.3972,-0.3975,-0.3973,-0.3976,-0.3977,-0.398,-0.3972,-0.3971,-0.397,-0.3968,-0.3967,-0.398,-0.398,-0.398,-0.398,0,-0.3879,-0.3883,-0.3882,-0.3893,-0.3898,-0.3899,-0.3912,-0.3915,-0.3923,-0.3931,-0.3936,-0.3945,-0.3954,-0.3955,-0.3962,-0.396,-0.3963,-0.3969,-0.3977,-0.3967,-0.3966,-0.3965,-0.3979,-0.3979,-0.3979,-0.398,0,0,-0.3855,-0.3873,-0.3873,-0.3879,-0.3892,-0.3895,-0.3898,-0.3906,-0.3909,-0.3917,-0.392,-0.3928,-0.3934,-0.3939,-0.3948,-0.3949,-0.3942,-0.3955,-0.3956,-0.3953,-0.3942,-0.3937,-0.3936,-0.3948,-0.3948,-0.3948,-0.3941,0,-0.3844,-0.385,-0.3861,-0.3863,-0.3868,-0.3881,-0.3884,-0.3892,-0.39,-0.3906,-0.3915,-0.392,-0.3928,-0.3931,-0.3933,-0.3943,-0.394,-0.3943,-0.3951,-0.3951,-0.3949,-0.3934,-0.3929,-0.3922,-0.394,-0.394,-0.394,0,-0.3833,-0.384,-0.3843,-0.3857,-0.3859,-0.3861,-0.387,-0.3875,-0.3885,-0.3891,-0.3897,-0.3907,-0.3911,-0.3918,-0.3925,-0.3927,-0.3931,-0.3936,-0.3936,-0.3938,-0.3945,-0.3936,-0.392,-0.392,-0.3939,-0.3939,-0.3939,0,-0.3815,-0.3826,-0.3829,-0.3834,-0.385,-0.3851,-0.3858,-0.3868,-0.3873,-0.3881,-0.3885,-0.3893,-0.3898,-0.3904,-0.3916,-0.392,-0.3922,-0.393,-0.3927,-0.3927,-0.3927,-0.3927,-0.3912,-0.3929,-0.3929,-0.3929,-0.3929,0,-0.3803,-0.3804,-0.3822,-0.3824,-0.3826,-0.384,-0.3842,-0.385,-0.3859,-0.3863,-0.3876,-0.3879,-0.3895,-0.39,-0.391,-0.3914,-0.3916,-0.3922,-0.3924,-0.3921,-0.392,-0.3924,-0.3925,-0.3929,-0.3929,-0.3929,-0.3929,0,-0.3784,-0.3796,-0.3801,-0.3815,-0.3819,-0.382,-0.3833,-0.3836,-0.3845,-0.3851,-0.3853,-0.3867,-0.3875,-0.3887,-0.3898,-0.3905,-0.3908,-0.3912,-0.3904,-0.3906,-0.3903,-0.3903,-0.3891,-0.389,-0.3907,-0.3906,-0.3906,0,-0.3775,-0.3777,-0.3792,-0.3796,-0.3802,-0.3808,-0.3813,-0.3827,-0.3831,-0.3844,-0.3846,-0.3854,-0.3862,-0.3873,-0.3885,-0.3894,-0.3898,-0.3893,-0.39,-0.3897,-0.3899,-0.3899,-0.39,-0.3892,-0.3892,-0.3891,-0.3891,0,-0.3759,-0.3765,-0.3772,-0.3781,-0.3787,-0.3794,-0.3803,-0.3805,-0.3821,-0.3826,-0.3834,-0.384,-0.3852,-0.386,-0.3871,-0.3879,-0.3888,-0.3889,-0.3889,-0.3886,-0.3882,-0.3885,-0.3901,-0.3889,-0.389,-0.389,-0.389,-0.389,-0.3745,-0.3747,-0.3759,-0.3766,-0.3774,-0.3782,-0.3786,-0.3796,-0.3803,-0.3813,-0.3821,-0.3829,-0.384,-0.3856,-0.3863,-0.3869,-0.3873,-0.3873,-0.3873,-0.3873,-0.3872,-0.3881,-0.3871,-0.3871,-0.3872,-0.3872,-0.3872,0,-0.373,-0.3738,-0.3745,-0.3757,-0.3763,-0.3771,-0.3781,-0.3786,-0.3792,-0.3802,-0.381,-0.382,-0.3828,-0.3841,-0.3851,-0.3854,-0.3859,-0.3856,-0.3856,-0.3858,-0.3868,-0.3867,-0.3852,-0.3852,-0.3852,-0.3852,-0.3852,-0.3852,-0.3723,-0.3727,-0.3735,-0.3744,-0.3752,-0.376,-0.3765,-0.3773,-0.3781,-0.3791,-0.3799,-0.3807,-0.3819,-0.383,-0.3838,-0.3842,-0.3845,-0.3842,-0.3846,-0.3855,-0.3857,-0.3859,-0.3858,-0.3842,-0.3842,-0.3836,-0.3836,-0.3836]},{"header":{"parameterUnit":"m.s-1","parameterCategory":1,"la1":30.2991,"la2":30.254,"lo1":-89.0895,"lo2":-89.0444,"dy":0.0017,"dx":0.0017,"nx":28,"ny":28,"refTime":"2025-06-20T21:00:00:Z","depth":0,"parameterNumber":3,"parameterNumberName":"V-component_of_WINDS"},"data":[0,0,0,0,0,0,0,0,0,0,0,0,0,0,0,0,0,0,0,0,0,0,0,0,0,0,0,0,0,0,0,0,0,0,0,0,0,0,0,0,0,0,0,0,0,0,0,0,0,0,0,0,0,0,0,0,0,0,3.7453,3.7452,0,3.7404,3.7403,3.7403,3.7311,3.7309,3.7307,3.7305,3.7257,3.7257,3.7257,0,0,0,0,0,0,0,0,0,0,0,0,0,3.7467,3.7468,3.7453,3.7452,3.7451,3.7404,3.7403,3.7402,3.7311,3.7309,3.7306,3.7304,3.7257,3.7257,3.7258,0,0,0,0,0,0,0,0,0,0,0,0,0,3.7444,3.7468,3.7453,3.74,3.7395,3.7404,3.7403,3.7402,3.7311,3.7309,3.7306,3.7303,3.7256,3.7257,3.7258,3.7315,0,0,3.7259,3.726,0,0,0,0,0,0,0,0,3.7446,3.7444,3.7408,3.7404,3.7398,3.736,3.739,3.7373,3.7312,3.7343,3.7305,3.7302,3.7294,3.7291,3.7288,3.7313,3.731,3.7259,3.726,3.726,3.726,0,0,0,0,0,0,0,3.7447,3.7445,3.7433,3.7408,3.7401,3.7379,3.7373,3.7387,3.7334,3.734,3.7333,3.7329,3.729,3.7287,3.7286,3.731,3.7259,3.726,3.726,3.726,3.7378,3.738,0,0,0,0,0,0,3.7457,3.7447,3.7435,3.7432,3.7415,3.7381,3.7374,3.7375,3.7334,3.7325,3.7331,3.7325,3.7288,3.7285,3.7284,3.7346,3.726,3.726,3.7261,3.7375,3.7378,3.7381,0,0,0,0,0,0,3.7457,3.7456,3.7437,3.7438,3.7433,3.7383,3.7386,3.7376,3.7373,3.7327,3.7317,3.7338,3.7285,3.7283,3.7307,3.7344,3.7261,3.7261,3.7372,3.7376,3.738,3.7474,0,0,0,0,0,0,3.7458,3.7457,3.7478,3.7439,3.7434,3.7461,3.7388,3.7377,3.7374,3.7365,3.733,3.7322,3.7283,3.7307,3.7308,3.7343,3.7262,3.7368,3.7373,3.7378,3.7467,3.7481,3.7492,0,0,0,0,0,3.7459,3.7507,3.748,3.7479,3.7459,3.7463,3.7461,3.7414,3.7377,3.7398,3.7368,3.7323,3.734,3.731,3.7311,3.7346,3.7366,3.7372,3.7378,3.7461,3.7478,3.7492,0,0,0,0,0,0,3.7553,3.7501,3.747,3.7507,3.749,3.7448,3.7472,3.7433,3.7427,3.7419,3.7363,3.7356,3.7387,3.7369,3.7337,3.7399,3.7346,3.7352,3.7409,3.7424,3.7436,3.7439,3.7262,0,0,0,0,0,3.7578,3.7585,3.754,3.7577,3.757,3.7523,3.7523,3.7489,3.747,3.7462,3.7434,3.7418,3.7419,3.7421,3.7419,3.7465,3.7455,3.7489,3.7502,3.7512,3.7518,3.7539,3.7553,3.7402,3.7402,3.7402,0,0,3.7629,3.7602,3.761,3.7595,3.7578,3.7587,3.7518,3.7531,3.7537,3.7464,3.7485,3.7464,3.7442,3.7476,3.749,3.7462,3.7558,3.752,3.7529,3.7529,3.7547,3.7562,3.7574,3.7406,3.7405,3.7404,0,0,3.7727,3.7708,3.7736,3.772,3.7695,3.7663,3.767,3.7634,3.7617,3.7637,3.7582,3.7589,3.7593,3.7579,3.7572,3.7665,3.7623,3.7666,3.7731,3.7752,3.7764,3.7774,3.7806,3.7818,3.7672,3.7673,3.7673,0,3.7794,3.7805,3.7755,3.7771,3.7766,3.77,3.7728,3.7715,3.7692,3.769,3.7659,3.7661,3.7642,3.7671,3.7694,3.7691,3.7696,3.7669,3.7766,3.7776,3.7785,3.7814,3.7827,3.7678,3.7677,3.7677,3.7676,0,3.7889,3.7897,3.7923,3.7901,3.7898,3.792,3.7874,3.7877,3.7844,3.7815,3.7836,3.781,3.7802,3.7807,3.7775,3.7832,3.7815,3.7777,3.7721,3.7805,3.7832,3.7843,3.7686,3.7684,3.7682,3.7681,0,0,3.8043,3.7993,3.8003,3.7992,3.7959,3.7965,3.7984,3.7975,3.7979,3.7965,3.7979,3.7984,3.7947,3.794,3.7905,3.7924,3.7997,3.7882,3.7881,3.7903,3.8057,3.8085,3.8099,3.797,3.7972,3.7974,3.8058,0,3.8133,3.8162,3.8117,3.8156,3.8163,3.8101,3.8117,3.8099,3.8074,3.8076,3.8048,3.8051,3.8004,3.7998,3.8015,3.7985,3.8027,3.7979,3.7981,3.7982,3.7987,3.8113,3.8143,3.8225,3.8069,3.807,3.8072,0,3.8241,3.8232,3.8271,3.8235,3.8237,3.8252,3.824,3.8243,3.8222,3.8201,3.8193,3.8152,3.8168,3.8116,3.8137,3.8104,3.8103,3.8089,3.8091,3.8088,3.8031,3.8112,3.825,3.8262,3.8088,3.8087,3.8085,0,3.8348,3.8345,3.8368,3.8361,3.832,3.8332,3.8316,3.8292,3.8289,3.8279,3.8276,3.8269,3.8264,3.8259,3.8217,3.8183,3.8242,3.8187,3.8225,3.8226,3.8239,3.8238,3.8376,3.8241,3.8241,3.8241,3.8241,0,3.8452,3.8478,3.8415,3.8429,3.8457,3.8406,3.8434,3.8412,3.8391,3.8399,3.8346,3.8355,3.8299,3.8302,3.827,3.8291,3.829,3.8273,3.8264,3.8277,3.8279,3.8274,3.8267,3.8244,3.8243,3.8243,3.8242,0,3.8575,3.8534,3.8555,3.8515,3.8505,3.8527,3.8493,3.8504,3.8475,3.8486,3.8486,3.8441,3.8441,3.8399,3.8391,3.8369,3.8404,3.8385,3.8411,3.8404,3.8444,3.844,3.8583,3.8598,3.8455,3.8457,3.8458,0,3.8643,3.8662,3.8624,3.8625,3.8611,3.8615,3.8611,3.8562,3.8561,3.8538,3.8552,3.8548,3.8542,3.8546,3.8512,3.8506,3.8485,3.8536,3.8484,3.8496,3.8484,3.8483,3.8484,3.8546,3.8548,3.855,3.8551,0,3.8768,3.8747,3.8744,3.8734,3.8732,3.8722,3.8709,3.8713,3.8659,3.8661,3.866,3.8656,3.8648,3.8644,3.8632,3.8615,3.8574,3.8567,3.8575,3.8588,3.8602,3.8593,3.8439,3.8564,3.8563,3.8562,3.8561,3.856,3.8864,3.8878,3.8852,3.8851,3.8836,3.8825,3.8833,3.8805,3.8803,3.8792,3.8764,3.8768,3.8745,3.8723,3.871,3.8713,3.8688,3.87,3.8703,3.8706,3.8713,3.8603,3.871,3.871,3.871,3.8709,3.8709,0,3.8985,3.8966,3.8965,3.8948,3.8947,3.8908,3.8892,3.8893,3.8897,3.888,3.8875,3.8874,3.887,3.8837,3.8829,3.8837,3.8818,3.8837,3.8835,3.8831,3.8737,3.8729,3.8852,3.8852,3.8852,3.8852,3.8852,3.8852,3.9047,3.9067,3.9043,3.9055,3.9035,3.9039,3.9032,3.9021,3.9006,3.9008,3.9005,3.8982,3.8958,3.8948,3.8943,3.8933,3.8932,3.8956,3.894,3.8852,3.8838,3.8825,3.8818,3.8957,3.8957,3.9034,3.9035,3.9035]}]]